Location: Gorze? G�rny
(49.8500°N, 19.5000°E)
Time: 05:19:49
(UTC+00:00)

Okean 1 Rocket - Pass Details

Date: 13 May 2021
Orbit: 605 x 635 km, 82.5° (Epoch: 20 June)

Event Time Altitude Azimuth Distance (km) Brightness Sun altitude
Rises 23:20:50 0° 351° (N) 2,909 7.8 -20.9°
Reaches altitude 10° 23:23:06 10° 355° (N) 1,993 6.7 -20.8°
Maximum altitude 23:27:30 67° 78° (ENE) 668 3.2 -20.7°
Enters shadow 23:28:45 44° 144° (SE) 856 3.4 -20.6°
